DW3529 Weather Reports


Display with metric or nautical units.
time (UTC)temp
F
wind
direction
speed
MPH
gust
MPH
rain 1hr
in
rain 24hr
in
rain mn
in
humidity
%
barometer
mb
20210614015000 77 220 6.0 11.0 0.00 0.00 0.00 47 1003.4
20210614014007 76 222 5.0 8.0 0.00 0.00 0.00 49 1003.3
20210614013000 76 194 6.0 10.0 0.00 0.00 0.00 50 1003.4
20210614012001 76 212 3.0 4.0 0.00 0.00 0.00 50 1003.5
20210614010001 77 190 4.0 6.0 0.00 0.00 0.00 49 1003.5
20210614005001 77 160 2.0 3.0 0.00 0.00 0.00 49 1003.5
20210614004004 78 201 4.0 5.0 0.00 0.00 0.00 47 1003.4
20210614000001 78 214 4.0 6.0 0.00 0.00 0.00 46 1003.1
20210613234008 79 154 3.0 5.0 0.00 0.00 0.00 46 1002.6
20210613233001 79 150 3.0 6.0 0.00 0.00 0.00 46 1002.5
20210613232001 81 168 8.0 10.0 0.00 0.00 0.00 43 1002.5
20210613224007 84 171 6.0 7.0 0.00 0.00 0.00 41 1002.8
20210613222001 86 140 4.0 7.0 0.00 0.00 0.00 42 1002.7
20210613220001 83 82 2.0 4.0 0.00 0.00 0.00 48 1002.9
20210613215001 83 88 2.0 4.0 0.00 0.00 0.00 47 1003.0
20210613213001 81 132 2.0 4.0 0.00 0.00 0.00 53 1003.2
20210613211001 81 171 4.0 5.0 0.00 0.00 0.00 52 1003.2
20210613210000 81 136 6.0 12.0 0.00 0.00 0.00 51 1003.2
20210613203001 87 132 6.0 10.0 0.00 0.00 0.00 43 1003.2
20210613201001 84 160 2.0 4.0 0.00 0.00 0.00 48 1003.7
20210613195000 82 120 2.0 4.0 0.00 0.00 0.00 48 1003.7
20210613193000 84 151 3.0 5.0 0.00 0.00 0.00 48 1003.7
20210613192000 83 135 4.0 6.0 0.00 0.00 0.00 47 1003.9
20210613184003 84 34 4.0 8.0 0.00 0.00 0.00 46 1004.1
20210613183001 84 58 2.0 3.0 0.00 0.00 0.00 48 1004.4
20210613182001 82 144 3.0 4.0 0.00 0.00 0.00 50 1004.4
20210613175001 80 139 3.0 5.0 0.00 0.00 0.00 52 1004.4
20210613174002 83 163 3.0 6.0 0.00 0.00 0.00 51 1004.6
20210613172000 83 149 2.0 4.0 0.00 0.00 0.00 49 1004.9
20210613171001 80 110 1.0 3.0 0.00 0.00 0.00 52 1004.9
20210613162001 79 92 2.0 3.0 0.00 0.00 0.00 52 1005.2
20210613160001 78 259 1.0 2.0 0.00 0.00 0.00 53 1005.5
20210613144002 71 32 2.0 3.0 0.00 0.00 0.00 68 1005.4
20210613143001 71 360 3.0 3.0 0.00 0.00 0.00 72 1005.4
20210613142001 70 16 4.0 5.0 0.00 0.00 0.00 76 1005.3
20210613135001 69 27 5.0 5.0 0.00 0.00 0.00 78 1005.2
20210613133001 68 54 3.0 3.0 0.00 0.00 0.00 82 1005.3
20210613132001 68 43 2.0 3.0 0.00 0.00 0.00 83 1005.4
20210613131001 66 52 1.0 1.0 0.00 0.00 0.00 87 1005.7
20210613130002 65 300 2.0 2.0 0.00 0.00 0.00 90 1005.5
20210613125002 64 0 0.0 0.0 0.00 0.00 0.00 90 1005.6
20210613122002 61 340 6.0 6.0 0.00 0.00 0.00 96 1005.1
20210613121002 60 337 3.0 5.0 0.00 0.00 0.00 96 1005.2
20210613120001 60 347 5.0 6.0 0.00 0.00 0.00 96 1005.1
20210613113002 61 355 4.0 5.0 0.00 0.00 0.00 95 1005.1
20210613112002 61 16 4.0 4.0 0.00 0.00 0.00 95 1005.0
20210613110001 61 11 4.0 4.0 0.00 0.00 0.00 94 1005.2
20210613105002 61 289 2.0 2.0 0.00 0.00 0.00 92 1005.3
20210613104001 61 292 2.0 2.0 0.00 0.00 0.00 95 1005.2
20210613103001 61 358 2.0 2.0 0.00 0.00 0.00 95 1005.3
20210613102002 61 17 3.0 3.0 0.00 0.00 0.00 94 1005.3
20210613101002 62 44 2.0 2.0 0.00 0.00 0.00 94 1005.2
20210613095002 61 0 0.0 0.0 0.00 0.00 0.00 94 1005.3
20210613094002 62 0 0.0 0.0 0.00 0.00 0.00 93 1005.2
20210613093001 62 0 0.0 0.0 0.00 0.00 0.00 92 1005.3
20210613084002 63 0 0.0 0.0 0.00 0.00 0.00 90 1005.1
20210613083000 63 154 1.0 2.0 0.00 0.00 0.00 90 1005.1
20210613082002 63 150 1.0 1.0 0.00 0.00 0.00 89 1005.2
20210613080002 63 164 2.0 3.0 0.00 0.00 0.00 89 1005.1
20210613075002 63 169 2.0 2.0 0.00 0.00 0.00 89 1005.3
20210613073001 64 110 2.0 3.0 0.00 0.00 0.00 87 1004.8
20210613071001 65 152 3.0 4.0 0.00 0.00 0.00 83 1004.7
20210613064001 66 149 3.0 5.0 0.00 0.00 0.00 83 1004.8
20210613063003 66 108 3.0 4.0 0.00 0.00 0.00 83 1004.9
20210613062001 66 126 3.0 4.0 0.00 0.00 0.00 83 1004.8
20210613060001 66 165 4.0 5.0 0.00 0.00 0.00 81 1004.5
20210613051000 68 0 0.0 0.0 0.00 0.00 0.00 76 1005.1
20210613050000 68 205 2.0 2.0 0.00 0.00 0.00 77 1005.1
20210613043003 69 142 1.0 2.0 0.00 0.00 0.00 69 1005.0
20210613042001 70 111 2.0 5.0 0.00 0.00 0.00 66 1004.9
20210613041001 70 108 3.0 4.0 0.00 0.00 0.00 65 1004.7
20210613040001 70 176 4.0 4.0 0.00 0.00 0.00 67 1004.7
20210613035001 71 163 3.0 5.0 0.00 0.00 0.00 69 1004.6
20210613033003 72 145 3.0 6.0 0.00 0.00 0.00 68 1004.5
20210613030001 73 166 3.0 8.0 0.00 0.00 0.00 64 1004.1
20210613023006 74 118 3.0 4.0 0.00 0.00 0.00 61 1004.2